Baltimore, MD

12:32 PM EST on January 20, 2018 (GMT -0500)
Baltimore-Washington International

Weather History for KBWI - July, 2013

Change the Weather History Date:

Sunday, July 28, 2013

  Actual Average Record
Temperature  
Mean Temperature 79 °F 77 °F  
Max Temperature 87 °F 87 °F 103 °F (1941)
Min Temperature 70 °F 67 °F 54 °F (1962)
Degree Days  
Heating Degree Days 0 0  
Month to date heating degree days 0 0  
Since 1 June heating degree days 0 15  
Since 1 July heating degree days 0 0  
Cooling Degree Days 14 12  
Month to date cooling degree days 421 334  
Year to date cooling degree days 829 656  
Since 1 June cooling degree days 698 572  
Growing Degree Days 28 (Base 50)    
Moisture  
Dew Point 67 °F    
Average Humidity 72    
Maximum Humidity 93    
Minimum Humidity 50    
Precipitation  
Precipitation T in 0.13 in 2.58 in (2017)
Month to date precipitation 2.77 3.67  
Year to date precipitation 24.44 24.16  
Snow  
Snow 0.00 in 0.00 in - ()
Month to date snowfall 0.0 0.0  
Since 1 July snowfall 0.0 0.0  
Snow Depth 0.00 in    
Sea Level Pressure  
Sea Level Pressure 29.92 in    
Wind  
Wind Speed 4 mph (WSW)    
Max Wind Speed 18 mph    
Max Gust Speed 23 mph    
Visibility 10 miles    
Events      
T = Trace of Precipitation, MM = Missing Value Source: NWS Daily Summary

Daily Weather History Graph

Daily Weather History Graph

Search for Another Location

Airport or City:

Trip Planner

Search our weather history database for the weather conditions in past years. The results will help you decide how hot, cold, wet, or windy it might be!

Date:

Astronomy

Jul. 28, 2013 Rise Set
Actual Time 6:03 AM EDT 8:22 PM EDT
Civil Twilight 5:33 AM EDT 8:52 PM EDT
Nautical Twilight 4:56 AM EDT 9:29 PM EDT
Astronomical Twilight 4:15 AM EDT 10:10 PM EDT
Moon 11:46 PM EDT (7/28) 12:40 PM EDT (7/28)
Length of Visible Light 15h 18m
Length of Day
14h 18m
Waning Gibbous, 61% of the Moon is Illuminated
Jul 28
Waning Gibbous
Jul 29
Last Quarter
Aug 6
New
Aug 14
First Quarter
Aug 20
Full

Hourly Weather History & Observations

Time (EDT) Temp. Heat Index Dew Point Humidity Pressure Visibility Wind Dir Wind Speed Gust Speed Precip Events Conditions
12:54 AM 72.0 °F - 69.1 °F 91% 29.93 in 10.0 mi Calm Calm - 0.00 in   Overcast
1:54 AM 71.1 °F - 69.1 °F 93% 29.93 in 9.0 mi Calm Calm - N/A   Overcast
2:54 AM 71.1 °F - 66.9 °F 87% 29.92 in 10.0 mi Calm Calm - N/A   Overcast
3:54 AM 71.1 °F - 66.9 °F 87% 29.91 in 10.0 mi Calm Calm - 0.00 in   Overcast
4:54 AM 71.1 °F - 66.0 °F 84% 29.91 in 10.0 mi Calm Calm - N/A   Overcast
5:54 AM 70.0 °F - 64.9 °F 84% 29.92 in 10.0 mi South 3.5 mph - N/A   Overcast
6:54 AM 71.1 °F - 66.0 °F 84% 29.93 in 10.0 mi Calm Calm - N/A   Overcast
7:54 AM 72.0 °F - 66.9 °F 84% 29.94 in 10.0 mi Calm Calm - N/A   Overcast
8:54 AM 73.9 °F - 68.0 °F 82% 29.92 in 10.0 mi SW 4.6 mph - N/A   Mostly Cloudy
9:54 AM 75.9 °F - 68.0 °F 76% 29.91 in 10.0 mi SSW 6.9 mph - N/A   Overcast
10:54 AM 78.1 °F - 69.1 °F 74% 29.92 in 10.0 mi SW 9.2 mph - N/A   Overcast
11:03 AM 78.8 °F - 68.0 °F 69% 29.92 in 10.0 mi SW 9.2 mph - N/A   Mostly Cloudy
11:54 AM 80.1 °F 82.3 °F 66.9 °F 64% 29.92 in 10.0 mi SW 8.1 mph 17.3 mph N/A   Mostly Cloudy
12:54 PM 81.0 °F 83.8 °F 68.0 °F 65% 29.93 in 10.0 mi West 9.2 mph - N/A   Mostly Cloudy
1:41 PM 82.4 °F 84.6 °F 66.2 °F 58% 29.92 in 10.0 mi WSW 5.8 mph - N/A   Mostly Cloudy
1:54 PM 82.0 °F 84.5 °F 66.9 °F 60% 29.92 in 10.0 mi Calm Calm - N/A   Mostly Cloudy
2:54 PM 82.9 °F 85.4 °F 66.9 °F 58% 29.90 in 10.0 mi SW 4.6 mph - N/A   Mostly Cloudy
3:54 PM 87.1 °F 89.2 °F 66.0 °F 49% 29.89 in 10.0 mi NW 10.4 mph - N/A   Mostly Cloudy
4:54 PM 84.9 °F 86.1 °F 64.0 °F 49% 29.89 in 10.0 mi WNW 4.6 mph - N/A   Mostly Cloudy
5:54 PM 82.0 °F 84.1 °F 66.0 °F 58% 29.90 in 10.0 mi WNW 5.8 mph - N/A   Mostly Cloudy
6:54 PM 81.0 °F 82.7 °F 64.9 °F 58% 29.88 in 10.0 mi NNW 4.6 mph - N/A   Mostly Cloudy
7:54 PM 81.0 °F 82.7 °F 64.9 °F 58% 29.92 in 10.0 mi Calm Calm - N/A   Mostly Cloudy
8:54 PM 77.0 °F - 71.1 °F 82% 29.92 in 10.0 mi SSE 6.9 mph - N/A   Mostly Cloudy
9:54 PM 75.9 °F - 70.0 °F 82% 29.94 in 10.0 mi SSW 3.5 mph - N/A   Scattered Clouds
10:54 PM 73.9 °F - 69.1 °F 85% 29.96 in 10.0 mi West 4.6 mph - N/A   Scattered Clouds
11:54 PM 72.0 °F - 64.9 °F 78% 29.98 in 10.0 mi West 8.1 mph - N/A   Scattered Clouds